{"data":{"norad_id":61254,"intl_designator":"2024-175M","name":"STARLINK-11306 [DTC]","alt_names":[],"object_type":"PAYLOAD","status":"ACTIVE","operator":null,"country":"US","launch_date":"2024-09-25","launch_site_code":"AFWTR","launch_vehicle":null,"mission":null,"orbit_class":"UNKNOWN","rcs_meters":null,"size_class":null,"mass_kg":null,"dimensions":null,"purposes":["comms"],"wikipedia_slug":null,"has_3d_model":false,"image_url":null,"decayed_at":null,"tle_current":{"epoch":"2026-05-24T23:01:31.105920Z","epoch_age_seconds":82565,"freshness":"FRESH","line1":"1 61254U 24175M   26144.95938780 -.00000222  00000+0  30261-5 0  9996","line2":"2 61254  53.1590  40.4150 0000855  79.4176 280.6938 15.69714751 96545","mean_motion":15.69714751,"eccentricity":8.55e-5,"inclination_deg":53.159,"raan_deg":40.415,"arg_perigee_deg":79.4176,"mean_anomaly_deg":280.6938,"bstar":3.0261e-6,"rev_number":9654,"period_min":91.736412560475,"perigee_km":359.13706872241,"apogee_km":360.2892410989,"semimajor_km":6737.8501549107,"source":"CELESTRAK","updated_at":"2026-05-25T13:38:19.365972Z"}}}